Location: Lesignano de� Bagni
(44.6500°N, 10.3000°E)
Time: 04:05:22
(UTC+00:00)

Cosmos 1066 Rocket - Visible Passes

Search period start: 15 June 2021 00:00
Search period end: 25 June 2021 00:00
Orbit: 798 x 895 km, 81.2° (Epoch: 14 June)

Date Brightness Start Highest point End Pass type
(mag) Time Alt. Az. Time Alt. Az. Time Alt. Az.
15 Jun 6.4 20:06:17 10° SW 20:10:44 26° WNW 20:15:11 10° NNW visible
16 Jun 6.3 19:52:46 10° SW 19:57:23 29° WNW 20:02:00 10° N visible
17 Jun 6.2 19:39:18 10° SW 19:44:03 31° WNW 19:48:49 10° N visible
